Regional Weather Roundup
Issued by NWS Albany, NY

Current Version | Previous Version | Text Only | Print | Product List | Glossary On
Versions: 1 2 3 4 5 6 7 8 9 10 11 12 13 14 15 16 17 18 19 20 21 22 23 24 25 26 27 28 29 30 31 32 33 34 35 36 37 38 39 40 41 42 43 44 45 46 47 48 49 50
000
ASUS41 KALY 201210
RWRALY

NEW YORK STATE HOURLY WEATHER ROUNDUP
NATIONAL WEATHER SERVICE ALBANY NY
800 AM EDT MON MAY 20 2019

NOTE: "FAIR" INDICATES FEW OR NO CLOUDS BELOW 12,000 FEET WITH NO
SIGNIFICANT WEATHER AND/OR NO OBSTRUCTIONS TO VISIBILITY.

NYZ032-033-038>043-046>054-057>066-NYZ062>081-082-084-201300-
EAST


CITY           SKY/WX    TMP DP  RH WIND       PRES   REMARKS
ALBANY         CLOUDY    66  62  87 S7        29.78F
GLENS FALLS    CLOUDY    66  63  90 S6        29.76S
POUGHKEEPSIE   CLOUDY    68  65  90 S5        29.81F
NEWBURGH       CLOUDY    66  66 100 VRB6      29.83F
MONTGOMERY     CLOUDY    66  65  96 SW6       29.82S
WHITE PLAINS   FAIR      65  63  93 CALM      29.83S FOG
ISLIP          PTSUNNY   66  62  87 SW13      29.85F
NEW YORK CITY  PTSUNNY   68  61  78 S7        29.83S
CENTRAL PARK   FAIR      70  65  84 SW9G17    29.86S
$$

NYZ005>009-017-018-044>046-055-056-201300-
CENTRAL


CITY           SKY/WX    TMP DP  RH WIND       PRES   REMARKS
FULTON         LGT RAIN  65  58  78 S7        29.73R
SYRACUSE       CLOUDY    69  59  70 SW13G22   29.74S
ROME           PTSUNNY   68  60  75 VRB3      29.75F
ELMIRA         FAIR      68  61  78 SW10      29.78F
BINGHAMTON     FAIR      64  61  90 SW12      29.82S
MONTICELLO     LGT RAIN  63  62  97 CALM      29.86F
$$

NYZ026>034-041>043-087-201300-
NORTH


CITY           SKY/WX    TMP DP  RH WIND       PRES   REMARKS
WATERTOWN      CLOUDY    67  61  81 W16G25    29.69R
FORT DRUM      NOT AVBL
OGDENSBURG     CLOUDY    63  61  94 SW8G24    29.65S FOG
MASSENA        CLOUDY    67  60  78 SW10      29.66S
SARANAC LAKE   CLOUDY    62  59  90 SW10      29.71F
PLATTSBURGH    CLOUDY    66  62  87 CALM      29.68S
$$

NYZ001>004-010>016-019>021-085-201300-
WEST


CITY           SKY/WX    TMP DP  RH WIND       PRES   REMARKS
NIAGARA FALLS  PTSUNNY   61  56  83 SW16      29.74R
BUFFALO        CLOUDY    54  53  97 SW12      29.76S
DUNKIRK        CLOUDY    63  57  81 SW13G24   29.79R
JAMESTOWN      CLOUDY    61  59  93 W8        29.82S
WELLSVILLE     CLOUDY    61  59  93 SW8G17    29.83S
ROCHESTER      PTSUNNY   66  58  75 W15       29.73S
PENN YAN       FAIR      66  59  78 SW14      29.76S
$$

             KEY
       WCI = WIND CHILL INDEX
       VSB = VISIBILITY
       HX  = HEAT INDEX
$$



USA.gov is the U.S. government's official web portal to all federal, state and local government web resources and services.